Search your local weather  

 

Hazardous Weather Conditions

Winter Weather Advisory issued January 30 at 1:45AM CST until February 1 at 12:00PM CST
Winter Weather Advisory issued January 30 at 1:01PM CST until February 1 at 12:00PM CST
Winter Storm Warning issued January 31 at 1:17AM CST until February 2 at 6:00AM CST
Winter Storm Warning issued January 31 at 9:08AM CST until February 2 at 6:00AM CST
Winter Storm Warning issued January 31 at 2:54PM CST until February 2 at 6:00AM CST

Current Conditions: SAN ANTONIO, TEXAS

Overcast


30.0 F

Last Updated on Jan 31 2023, 6:55 pm CST
Humidity: 100%
Wind Speed: N 11.5 mph
Barometer 30.25 in
Dewpoint: 30.2 F
Visibility: 10.00 mi
Precip: --
Heat Index: NA
Wind Chill: 20 F
Current conditions at:

San Antonio Boerne Stage Field, TX (K5C1)

Lat: 29.7239 Lon: -98.6946

Local Radar Image active severe weather and emergency alerts image image weather storm and storm spotter reports image weather observation monitoring service image
Local
Radar
Active
Alerts
Storm Reports Weather
Monitoring

5 Day Forecast for SAN ANTONIO, TEXAS (78201)

Tuesday

Chance of Rain Showers
High 37 °F
Tuesday
Night
Rain

Low 33 °F
Wednesday

Rain Showers Likely
High 36 °F
Wednesday
Night
Rain

Low 35 °F
Thursday

Slight Chance of Rain Showers
High 51 °F
Thursday
Night
Mostly Clear

Low 37 °F
Friday

Mostly Sunny

High 57 °F
Friday
Night
Mostly Clear

Low 33 °F
Saturday

Partly Sunny

High 60 °F

Sign-up For Email & Text Message Weather Alert Notification Services



Advertise Here

Observation History for SAN ANTONIO, TEXAS


Time Wind
(mph)
Vis
(mi)
Weather Precip (in) Temperature (F) Relative
Humidity
Wind
Chill
(F)
Heat
Index
(F)
Pressure
Air Dwpt altimeter
(in)
sea level
(mb)
6:55 pm CST N 11.5 10.00 Overcast -- 30.0 30.2 100% 20 NA 30.25 M
6:15 pm CST N 9.2 10.00 Overcast -- 30.0 30.2 100% 22 NA 30.24 M
4:55 pm CST N 8.1 10.00 Overcast -- 30.0 30.2 100% 22 NA 30.23 M
3:35 pm CST N 10.4 10.00 Overcast -- 30.0 30.2 100% 21 NA 30.22 M
2:55 pm CST N 9.2 G 17.3 7.00 Overcast -- 30.0 30.2 100% 22 NA 30.21 M
10:55 am CST N 9.2 7.00 Overcast -- 30.0 30.2 100% 22 NA 30.27 M
10:35 am CST N 9.2 4.00 Overcast -- 30.0 30.2 100% 22 NA 30.27 M
9:55 am CST N 6.9 7.00 Overcast -- 30.0 30.2 100% 23 NA 30.26 M
9:15 am CST N 9.2 3.00 Overcast -- 30.0 30.2 100% 22 NA 30.25 M
4:35 am CST N 6.9 4.00 Overcast -- 30.0 30.2 100% 23 NA 30.16 M
3:15 am CST N 6.9 3.00 Overcast -- 30.0 30.2 100% 23 NA 30.16 M
2:55 am CST N 6.9 2.50 Overcast -- 30.0 30.2 100% 23 NA 30.16 M
2:35 am CST N 8.1 2.50 Overcast -- 30.0 30.2 100% 22 NA 30.16 M
1:15 am CST N 9.2 2.00 Overcast -- 30.0 30.2 100% 22 NA 30.17 M
12:15 am CST N 8.1 2.00 Overcast -- 30.0 30.2 100% 22 NA 30.17 M
11:15 pm CST N 11.5 4.00 Overcast -- 30.0 30.2 100% 20 NA 30.18 M
10:35 pm CST N 11.5 G 16.1 2.50 Overcast -- 30.0 30.2 100% 20 NA 30.18 M
10:15 pm CST N 11.5 2.50 Overcast -- 30.0 30.2 100% 20 NA 30.19 M
7:55 pm CST N 10.4 2.50 Overcast -- 30.0 30.2 100% 21 NA 30.19 M

Regional Weather Observation

San Antonio, San Antonio International Airport, TX (KSAT)

Overcast
33.0 F

Castroville Municipal Airport, TX (KCVB)

Light Drizzle
36.0 F

San Antonio - Kelly Field, TX (KSKF)

Overcast
34.0 F

San Antonio, Stinson Municipal Airport, TX (KSSF)

Overcast
35.0 F

Randolph Air Force Base, TX (KRND)

Overcast
32.0 F

New Braunfels Regional Airport, TX (KBAZ)

Overcast
33.0 F

Advertise Here


Advertise Here